DW7888 Weather Reports


time (UTC)temp
C
wind
direction
speed
KPH
gust
KPH
rain 1hr
cm
rain 24hr
cm
rain mn
cm
humidity
%
barometer
mb
20260510225513 27 116 0.0 3.2 0.00 0.00 0.00 38 1012.6
20260510225008 27 116 0.0 8.0 0.00 0.00 0.00 37 1012.5
20260510224530 27 176 0.0 8.0 0.00 0.00 0.00 37 1012.4
20260510224010 27 131 1.6 8.0 0.00 0.00 0.00 35 1012.4
20260510223506 27 189 1.6 6.4 0.00 0.00 0.00 36 1012.4
20260510223025 27 184 1.6 6.4 0.00 0.00 0.00 35 1012.4
20260510222511 27 187 0.0 4.8 0.00 0.00 0.00 36 1012.3
20260510222010 27 159 0.0 11.3 0.00 0.00 0.00 35 1012.4
20260510221526 27 138 0.0 11.3 0.00 0.00 0.00 35 1012.3
20260510221009 27 177 3.2 8.0 0.00 0.00 0.00 35 1012.3
20260510220510 27 180 0.0 4.8 0.00 0.00 0.00 35 1012.3
20260510220024 27 149 1.6 4.8 0.00 0.00 0.00 36 1012.3
20260510215507 27 217 0.0 4.8 0.00 0.00 0.00 35 1012.4
20260510215009 28 155 0.0 11.3 0.00 0.00 0.00 35 1012.4
20260510214526 28 175 0.0 11.3 0.00 0.00 0.00 35 1012.5
20260510214010 28 102 0.0 11.3 0.00 0.00 0.00 34 1012.5
20260510213514 28 155 0.0 4.8 0.00 0.00 0.00 35 1012.4
20260510213026 28 350 0.0 6.4 0.00 0.00 0.00 34 1012.4
20260510212510 28 273 0.0 6.4 0.00 0.00 0.00 34 1012.5
20260510212013 28 132 0.0 9.7 0.00 0.00 0.00 36 1012.4
20260510211526 28 171 0.0 11.3 0.00 0.00 0.00 33 1012.5
20260510211013 28 174 3.2 11.3 0.00 0.00 0.00 33 1012.5
20260510210504 28 147 3.2 12.9 0.00 0.00 0.00 33 1012.5
20260510210007 28 175 0.0 12.9 0.00 0.00 0.00 34 1012.5
20260510205507 28 140 1.6 8.0 0.00 0.00 0.00 33 1012.5
20260510205003 28 142 1.6 8.0 0.00 0.00 0.00 33 1012.5
20260510204507 28 219 1.6 8.0 0.00 0.00 0.00 33 1012.6
20260510204008 28 223 0.0 8.0 0.00 0.00 0.00 33 1012.5
20260510203503 29 87 1.6 8.0 0.00 0.00 0.00 31 1012.5
20260510203006 29 355 0.0 8.0 0.00 0.00 0.00 34 1012.7
20260510202507 29 125 0.0 8.0 0.00 0.00 0.00 32 1012.6
20260510202003 29 160 3.2 8.0 0.00 0.00 0.00 32 1012.7
20260510201512 29 135 0.0 4.8 0.00 0.00 0.00 34 1012.7
20260510201010 29 15 0.0 16.1 0.00 0.00 0.00 38 1012.7
20260510200502 28 352 4.8 16.1 0.00 0.00 0.00 33 1012.8
20260510200012 29 340 1.6 9.7 0.00 0.00 0.00 34 1012.8
20260510195510 29 82 1.6 8.0 0.00 0.00 0.00 36 1013.0
20260510195003 28 352 3.2 8.0 0.00 0.00 0.00 33 1013.1
20260510194512 28 67 1.6 8.0 0.00 0.00 0.00 31 1013.1
20260510194007 29 348 1.6 8.0 0.00 0.00 0.00 35 1013.1
20260510193503 28 49 1.6 8.0 0.00 0.00 0.00 41 1013.2
20260510193010 28 331 4.8 8.0 0.00 0.00 0.00 33 1013.4
20260510192507 28 68 0.0 8.0 0.00 0.00 0.00 35 1013.3
20260510192003 28 130 1.6 8.0 0.00 0.00 0.00 32 1013.4
20260510191516 28 355 0.0 8.0 0.00 0.00 0.00 36 1013.3
20260510191011 28 344 1.6 12.9 0.00 0.00 0.00 34 1013.2
20260510190504 28 128 0.0 12.9 0.00 0.00 0.00 34 1013.3
20260510190016 28 134 4.8 12.9 0.00 0.00 0.00 35 1013.4
20260510185508 29 155 1.6 6.4 0.00 0.00 0.00 35 1013.6
20260510185004 29 48 3.2 8.0 0.00 0.00 0.00 37 1013.7
20260510184517 28 360 1.6 9.7 0.00 0.00 0.00 37 1013.6
20260510184010 28 176 1.6 9.7 0.00 0.00 0.00 38 1013.7
20260510183507 28 337 3.2 6.4 0.00 0.00 0.00 33 1013.6
20260510183031 28 96 1.6 6.4 0.00 0.00 0.00 37 1013.6
20260510182507 28 110 1.6 8.0 0.00 0.00 0.00 38 1013.7
20260510182006 28 296 1.6 9.7 0.00 0.00 0.00 35 1013.7
20260510181516 28 132 1.6 9.7 0.00 0.00 0.00 36 1013.7
20260510181010 28 55 1.6 9.7 0.00 0.00 0.00 39 1013.7
20260510180508 28 61 1.6 9.7 0.00 0.00 0.00 40 1013.7
20260510180020 28 126 3.2 9.7 0.00 0.00 0.00 36 1013.7
20260510175509 28 15 0.0 6.4 0.00 0.00 0.00 39 1013.8
20260510175006 28 177 1.6 6.4 0.00 0.00 0.00 34 1013.9
20260510174520 28 174 0.0 8.0 0.00 0.00 0.00 39 1014.0
20260510174009 28 206 1.6 8.0 0.00 0.00 0.00 38 1014.0
20260510173504 27 289 0.0 6.4 0.00 0.00 0.00 36 1013.9
20260510173020 28 109 1.6 6.4 0.00 0.00 0.00 38 1013.9
20260510172509 27 248 0.0 6.4 0.00 0.00 0.00 40 1014.0
20260510172007 27 28 0.0 9.7 0.00 0.00 0.00 37 1014.0
20260510171521 27 272 1.6 9.7 0.00 0.00 0.00 43 1013.9
20260510171009 27 319 1.6 9.7 0.00 0.00 0.00 43 1014.1
20260510170506 27 262 1.6 9.7 0.00 0.00 0.00 41 1014.1
20260510170021 27 341 1.6 8.0 0.00 0.00 0.00 38 1014.2
20260510165509 27 355 3.2 8.0 0.00 0.00 0.00 40 1014.4
20260510165005 27 111 1.6 9.7 0.00 0.00 0.00 43 1014.5
20260510164542 26 308 0.0 9.7 0.00 0.00 0.00 39 1014.4
20260510164009 27 360 3.2 9.7 0.00 0.00 0.00 38 1014.5
20260510163506 27 123 0.0 9.7 0.00 0.00 0.00 40 1014.5
20260510163021 26 136 1.6 6.4 0.00 0.00 0.00 45 1014.4
20260510162511 26 134 0.0 9.7 0.00 0.00 0.00 45 1014.5
20260510162007 26 151 3.2 9.7 0.00 0.00 0.00 42 1014.5
20260510161523 26 328 3.2 9.7 0.00 0.00 0.00 45 1014.5
20260510161012 26 346 1.6 6.4 0.00 0.00 0.00 44 1014.6
20260510160508 26 137 1.6 4.8 0.00 0.00 0.00 44 1014.7
20260510160034 26 77 0.0 4.8 0.00 0.00 0.00 46 1014.6
20260510155513 26 152 1.6 6.4 0.00 0.00 0.00 44 1014.7
20260510155007 25 302 1.6 6.4 0.00 0.00 0.00 50 1014.7
20260510154525 25 325 1.6 6.4 0.00 0.00 0.00 44 1014.6
20260510154005 26 360 0.0 8.0 0.00 0.00 0.00 56 1014.7
20260510153509 26 121 3.2 8.0 0.00 0.00 0.00 46 1014.8
20260510153030 26 112 1.6 6.4 0.00 0.00 0.00 52 1014.8
20260510152510 26 44 0.0 3.2 0.00 0.00 0.00 47 1014.8
20260510152010 25 164 0.0 8.0 0.00 0.00 0.00 47 1014.9
20260510151526 25 31 1.6 8.0 0.00 0.00 0.00 46 1014.8
20260510151007 25 110 0.0 4.8 0.00 0.00 0.00 51 1014.9
20260510150507 25 302 0.0 8.0 0.00 0.00 0.00 51 1015.0
20260510150024 25 45 1.6 8.0 0.00 0.00 0.00 49 1015.0
20260510145509 25 312 3.2 6.4 0.00 0.00 0.00 49 1015.0
20260510145007 24 5 1.6 4.8 0.00 0.00 0.00 54 1014.9
20260510144527 24 333 0.0 4.8 0.00 0.00 0.00 52 1014.9
20260510144007 24 355 1.6 4.8 0.00 0.00 0.00 51 1015.0
20260510143508 24 10 0.0 6.4 0.00 0.00 0.00 52 1015.0
20260510143034 23 349 1.6 6.4 0.00 0.00 0.00 53 1014.9
20260510142508 23 49 0.0 4.8 0.00 0.00 0.00 55 1014.9
20260510142010 22 321 1.6 6.4 0.00 0.00 0.00 55 1014.8
20260510141527 22 360 3.2 6.4 0.00 0.00 0.00 56 1014.8
20260510141006 22 346 0.0 4.8 0.00 0.00 0.00 59 1014.7
20260510140511 22 32 0.0 6.4 0.00 0.00 0.00 59 1014.8
20260510140030 21 60 1.6 6.4 0.00 0.00 0.00 61 1014.9
20260510135507 21 12 0.0 6.4 0.00 0.00 0.00 61 1014.8
20260510135010 21 17 1.6 6.4 0.00 0.00 0.00 64 1014.7
20260510134528 20 27 0.0 3.2 0.00 0.00 0.00 70 1014.6
20260510134006 20 355 0.0 3.2 0.00 0.00 0.00 67 1014.5
20260510133508 20 355 0.0 4.8 0.00 0.00 0.00 68 1014.6
20260510133026 20 36 0.0 4.8 0.00 0.00 0.00 70 1014.6
20260510132509 19 127 0.0 8.0 0.00 0.00 0.00 70 1014.6
20260510132011 19 23 0.0 8.0 0.00 0.00 0.00 71 1014.8
20260510131527 19 360 1.6 6.4 0.00 0.00 0.00 71 1014.9
20260510131008 18 344 1.6 6.4 0.00 0.00 0.00 74 1014.8
20260510130508 18 5 1.6 6.4 0.00 0.00 0.00 76 1014.8
20260510130033 18 355 1.6 6.4 0.00 0.00 0.00 77 1014.7
20260510125506 17 5 0.0 3.2 0.00 0.00 0.00 78 1014.5
20260510125008 17 351 0.0 4.8 0.00 0.00 0.00 79 1014.5
20260510124538 17 352 0.0 4.8 0.00 0.00 0.00 81 1014.4
20260510124010 16 360 0.0 6.4 0.00 0.00 0.00 82 1014.5
20260510123511 16 337 0.0 6.4 0.00 0.00 0.00 84 1014.5
20260510123028 15 360 0.0 1.6 0.00 0.00 0.00 88 1014.6
20260510122510 15 340 0.0 4.8 0.00 0.00 0.00 91 1014.5
20260510122011 15 340 0.0 4.8 0.00 0.00 0.00 93 1014.4
20260510121528 14 352 0.0 3.2 0.00 0.00 0.00 95 1014.3
20260510121009 13 55 0.0 3.2 0.00 0.00 0.00 96 1014.2
20260510120504 13 94 0.0 0.0 0.00 0.00 0.00 96 1014.1
20260510120007 13 94 0.0 0.0 0.00 0.00 0.00 96 1013.9
20260510115506 13 94 0.0 0.0 0.00 0.00 0.00 96 1013.9
20260510115005 12 105 0.0 0.0 0.00 0.00 0.00 95 1013.9
20260510114512 12 105 0.0 0.0 0.00 0.00 0.00 95 1013.9
20260510114004 12 105 0.0 0.0 0.00 0.00 0.00 95 1013.8
20260510113505 12 105 0.0 0.0 0.00 0.00 0.00 95 1013.8
20260510113013 12 105 0.0 0.0 0.00 0.00 0.00 95 1013.7
20260510112503 12 105 0.0 0.0 0.00 0.00 0.00 95 1013.6
20260510112004 11 105 0.0 0.0 0.00 0.00 0.00 95 1013.6
20260510111508 11 105 0.0 0.0 0.00 0.00 0.00 95 1013.5
20260510111004 11 105 0.0 0.0 0.00 0.00 0.00 95 1013.4
20260510110507 11 105 0.0 0.0 0.00 0.00 0.00 94 1013.4
20260510110010 11 105 0.0 0.0 0.00 0.00 0.00 94 1013.4
20260510105504 11 105 0.0 0.0 0.00 0.00 0.00 94 1013.3
20260510105007 11 105 0.0 0.0 0.00 0.00 0.00 94 1013.3
20260510104512 11 105 0.0 0.0 0.00 0.00 0.00 94 1013.3
20260510104006 11 195 0.0 0.0 0.00 0.00 0.00 94 1013.1
20260510103505 11 195 0.0 0.0 0.00 0.00 0.00 94 1013.0
20260510103007 11 195 0.0 0.0 0.00 0.00 0.00 94 1012.9
20260510102503 11 195 0.0 0.0 0.00 0.00 0.00 94 1012.8
20260510102003 11 195 0.0 0.0 0.00 0.00 0.00 94 1012.7
20260510101508 11 195 0.0 0.0 0.00 0.00 0.00 93 1012.7
20260510101003 11 195 0.0 0.0 0.00 0.00 0.00 93 1012.6
20260510100507 11 195 0.0 0.0 0.00 0.00 0.00 93 1012.5
20260510100010 11 352 0.0 0.0 0.00 0.00 0.00 93 1012.4
20260510095505 11 352 0.0 0.0 0.00 0.00 0.00 93 1012.4
20260510095005 12 352 0.0 0.0 0.00 0.00 0.00 93 1012.4
20260510094511 12 352 0.0 0.0 0.00 0.00 0.00 93 1012.3
20260510094004 12 352 0.0 0.0 0.00 0.00 0.00 93 1012.3
20260510093507 12 352 0.0 0.0 0.00 0.00 0.00 93 1012.2
20260510093012 12 352 0.0 0.0 0.00 0.00 0.00 93 1012.3
20260510092503 12 352 0.0 0.0 0.00 0.00 0.00 93 1012.3
20260510092009 12 352 0.0 0.0 0.00 0.00 0.00 93 1012.2
20260510091517 12 352 0.0 0.0 0.00 0.00 0.00 93 1012.2
20260510091003 12 352 0.0 0.0 0.00 0.00 0.00 93 1012.2
20260510090506 12 352 0.0 0.0 0.00 0.00 0.00 93 1012.1
20260510090014 12 352 0.0 0.0 0.00 0.00 0.00 93 1012.0
20260510085505 12 352 0.0 0.0 0.00 0.00 0.00 92 1011.9
20260510085004 12 352 0.0 0.0 0.00 0.00 0.00 92 1011.9
20260510084512 13 352 0.0 0.0 0.00 0.00 0.00 92 1011.9
20260510084006 13 352 0.0 0.0 0.00 0.00 0.00 92 1011.9
20260510083510 13 352 0.0 0.0 0.00 0.00 0.00 92 1011.9
20260510083012 13 352 0.0 0.0 0.00 0.00 0.00 92 1011.9
20260510082505 13 352 0.0 0.0 0.00 0.00 0.00 92 1011.9
20260510082006 13 352 0.0 0.0 0.00 0.00 0.00 92 1011.8
20260510081528 13 352 0.0 0.0 0.00 0.00 0.00 91 1011.7
20260510081007 13 352 0.0 0.0 0.00 0.00 0.00 91 1011.7
20260510080508 13 352 0.0 0.0 0.00 0.00 0.00 91 1011.7
20260510080013 13 352 0.0 0.0 0.00 0.00 0.00 91 1011.6
20260510075506 14 352 0.0 0.0 0.00 0.00 0.00 91 1011.7
20260510075006 14 352 0.0 0.0 0.00 0.00 0.00 90 1011.6
20260510074513 14 352 0.0 0.0 0.00 0.00 0.00 90 1011.6
20260510074009 14 352 0.0 0.0 0.00 0.00 0.00 90 1011.6
20260510073509 15 352 0.0 0.0 0.00 0.00 0.00 89 1011.6
20260510073025 15 352 0.0 0.0 0.00 0.00 0.00 89 1011.6
20260510072505 15 352 0.0 0.0 0.00 0.00 0.00 89 1011.6
20260510072006 15 352 0.0 0.0 0.00 0.00 0.00 89 1011.6
20260510071516 15 352 0.0 0.0 0.00 0.00 0.00 88 1011.6
20260510071009 15 352 0.0 0.0 0.00 0.00 0.00 88 1011.5
20260510070506 16 352 0.0 0.0 0.00 0.00 0.00 87 1011.4
20260510070023 16 352 0.0 0.0 0.00 0.00 0.00 87 1011.5
20260510065506 16 352 0.0 0.0 0.00 0.00 0.00 87 1011.5
20260510065009 16 352 0.0 0.0 0.00 0.00 0.00 87 1011.5
20260510064542 16 352 0.0 3.2 0.00 0.00 0.00 86 1011.5
20260510064005 16 352 0.0 3.2 0.00 0.00 0.00 86 1011.5
20260510063509 16 19 0.0 1.6 0.00 0.00 0.00 86 1011.6
20260510063019 17 19 0.0 1.6 0.00 0.00 0.00 85 1011.6
20260510062506 17 19 0.0 1.6 0.00 0.00 0.00 85 1011.6
20260510062007 17 27 0.0 3.2 0.00 0.00 0.00 85 1011.6
20260510061530 17 5 0.0 3.2 0.00 0.00 0.00 84 1011.6
20260510061006 17 5 0.0 3.2 0.00 0.00 0.00 84 1011.5
20260510060508 17 30 0.0 3.2 0.00 0.00 0.00 84 1011.6
20260510060026 17 5 0.0 3.2 0.00 0.00 0.00 84 1011.6
20260510055510 17 46 0.0 1.6 0.00 0.00 0.00 83 1011.5
20260510055001 17 32 0.0 3.2 0.00 0.00 0.00 83 1011.4
20260510054510 17 10 0.0 3.2 0.00 0.00 0.00 83 1011.6
20260510054007 17 315 0.0 4.8 0.00 0.00 0.00 83 1011.7
20260510053506 17 81 0.0 8.0 0.00 0.00 0.00 83 1011.6
20260510053012 17 90 0.0 6.4 0.00 0.00 0.00 82 1011.6
20260510052505 17 355 0.0 3.2 0.00 0.00 0.00 82 1011.6
20260510052007 17 101 0.0 3.2 0.00 0.00 0.00 82 1011.6
20260510051514 17 103 0.0 3.2 0.00 0.00 0.00 81 1011.6
20260510051006 18 76 0.0 3.2 0.00 0.00 0.00 81 1011.7
20260510050502 18 127 0.0 3.2 0.00 0.00 0.00 81 1011.6
20260510050014 18 150 0.0 6.4 0.00 0.00 0.00 80 1011.7
20260510045504 18 122 1.6 6.4 0.00 0.00 0.00 80 1011.6
20260510045010 18 144 0.0 6.4 0.00 0.00 0.00 80 1011.6
20260510044516 18 153 0.0 3.2 0.00 0.00 0.00 80 1011.6
20260510044004 18 160 0.0 3.2 0.00 0.00 0.00 79 1011.6
20260510043504 18 197 0.0 4.8 0.00 0.00 0.00 79 1011.6
20260510043019 18 165 0.0 6.4 0.00 0.00 0.00 79 1011.6
20260510042503 18 117 0.0 11.3 0.00 0.00 0.00 78 1011.5
20260510042009 18 143 0.0 11.3 0.00 0.00 0.00 78 1011.5
20260510041517 18 78 0.0 3.2 0.00 0.00 0.00 78 1011.5
20260510041003 18 198 0.0 4.8 0.00 0.00 0.00 78 1011.5
20260510040506 18 165 0.0 4.8 0.00 0.00 0.00 78 1011.5
20260510040018 18 175 0.0 8.0 0.00 0.00 0.00 77 1011.4
20260510035502 18 142 0.0 8.0 0.00 0.00 0.00 77 1011.4
20260510035006 18 179 0.0 1.6 0.00 0.00 0.00 77 1011.4
20260510034521 18 150 0.0 3.2 0.00 0.00 0.00 77 1011.3
20260510034003 18 123 0.0 3.2 0.00 0.00 0.00 76 1011.3
20260510033506 18 127 0.0 3.2 0.00 0.00 0.00 75 1011.3
20260510033019 18 175 0.0 3.2 0.00 0.00 0.00 75 1011.3
20260510032502 18 170 0.0 4.8 0.00 0.00 0.00 75 1011.2
20260510032007 18 194 0.0 12.9 0.00 0.00 0.00 74 1011.2
20260510031522 18 136 0.0 12.9 0.00 0.00 0.00 74 1011.2
20260510031004 18 103 0.0 6.4 0.00 0.00 0.00 74 1011.2
20260510030506 18 146 0.0 6.4 0.00 0.00 0.00 74 1011.1
20260510030019 18 189 1.6 6.4 0.00 0.00 0.00 73 1011.1
20260510025504 19 171 0.0 6.4 0.00 0.00 0.00 73 1011.2
20260510025006 19 194 1.6 4.8 0.00 0.00 0.00 73 1011.1
20260510024528 19 175 0.0 8.0 0.00 0.00 0.00 72 1011.1
20260510024003 19 168 1.6 8.0 0.00 0.00 0.00 72 1011.0
20260510023508 19 189 0.0 6.4 0.00 0.00 0.00 72 1011.0
20260510023025 19 209 1.6 8.0 0.00 0.00 0.00 72 1010.9
20260510022504 19 176 1.6 8.0 0.00 0.00 0.00 72 1010.9
20260510022006 19 165 0.0 6.4 0.00 0.00 0.00 72 1010.8
20260510021522 19 132 1.6 4.8 0.00 0.00 0.00 72 1010.8
20260510021003 18 171 0.0 4.8 0.00 0.00 0.00 72 1010.7
20260510020507 18 113 0.0 3.2 0.00 0.00 0.00 72 1010.7
20260510020024 19 155 0.0 0.0 0.00 0.00 0.00 72 1010.6
20260510015503 19 136 0.0 0.0 0.00 0.00 0.00 72 1010.5
20260510015007 19 130 0.0 0.0 0.00 0.00 0.00 72 1010.4
20260510014529 19 172 0.0 0.0 0.00 0.00 0.00 72 1010.4
20260510014004 19 151 0.0 0.0 0.00 0.00 0.00 72 1010.3
20260510013507 18 149 0.0 0.0 0.00 0.00 0.00 72 1010.2
20260510013025 18 148 0.0 0.0 0.00 0.00 0.00 72 1010.2
20260510012503 18 142 0.0 0.0 0.00 0.00 0.00 72 1010.2
20260510012009 18 154 0.0 0.0 0.00 0.00 0.00 73 1010.2
20260510011528 18 149 0.0 0.0 0.00 0.00 0.00 73 1010.1
20260510011006 18 149 0.0 0.0 0.00 0.00 0.00 73 1010.0
20260510010506 18 149 0.0 0.0 0.00 0.00 0.00 73 1009.9
20260510010025 18 150 0.0 0.0 0.00 0.00 0.00 73 1009.9
20260510005507 18 149 0.0 0.0 0.00 0.00 0.00 73 1009.9
20260510005006 18 149 0.0 0.0 0.00 0.00 0.00 72 1009.8
20260510004526 18 149 0.0 3.2 0.00 0.00 0.00 73 1009.7
20260510004010 18 153 0.0 3.2 0.00 0.00 0.00 72 1009.6
20260510003514 19 151 0.0 0.0 0.00 0.00 0.00 72 1009.6
20260510003034 19 151 0.0 1.6 0.00 0.00 0.00 71 1009.6
20260510002506 19 151 0.0 1.6 0.00 0.00 0.00 70 1009.6
20260510002010 20 151 0.0 1.6 0.00 0.00 0.00 70 1009.5
20260510001528 20 121 0.0 0.0 0.00 0.00 0.00 70 1009.3
20260510001007 20 116 0.0 1.6 0.00 0.00 0.00 70 1009.4
20260510000507 20 116 0.0 1.6 0.00 0.00 0.00 68 1009.3
20260510000030 21 82 0.0 0.0 0.00 0.00 0.00 68 1009.2
20260509235505 21 82 0.0 0.0 0.00 0.00 0.00 66 1009.2
20260509235012 21 82 0.0 0.0 0.00 0.00 0.00 66 1009.2
20260509234536 22 82 0.0 0.0 0.00 0.00 0.00 64 1009.1
20260509234007 22 82 0.0 0.0 0.00 0.00 0.00 63 1009.0
20260509233509 22 38 0.0 0.0 0.00 0.00 0.00 60 1009.0
20260509233039 22 38 0.0 0.0 0.00 0.00 0.00 57 1009.0
20260509232507 22 38 0.0 0.0 0.00 0.00 0.00 56 1009.1
20260509232007 22 38 0.0 0.0 0.00 0.00 0.00 55 1009.1
20260509231512 22 38 0.0 1.6 0.00 0.00 0.00 56 1009.1
20260509231008 23 38 0.0 1.6 0.00 0.00 0.00 56 1009.1
20260509230508 23 41 0.0 1.6 0.00 0.00 0.00 56 1009.1
20260509230012 23 117 0.0 0.0 0.00 0.00 0.00 56 1009.1